Date String (YYYY-MM-DD hh:mm:ss) UTC,Instrument flags,Ambient pressure (hPa),Sample flow (lpm),Bypass flow (lpm),Sample temperature (°C),Ambient temperature (°C),ASC tube jacket temperature (°C),LED temperature (°C),Box temperature (°C),Sample RH (%),Span deviation,Mass concentration (μg/m³),Mass concentration (μg/m³),Mass concentration (μg/m³)
DateTimeUTC,F1_M11,P_M11,Q1_M11,Q2_M11,T1_M11,T2_M11,T3_M11,T4_M11,T5_M11,U1_M11,ZSPAN_M11,X0_M11,X2_M11,X1_M11
2022-10-05 01:00:00,,0830.5,4.99,0.00,27.5,26.0,00.0,36.3,29.4,27.3,-002.2,0015.12,0010.88,0010.44
2022-10-05 01:01:00,,0830.5,5.01,0.00,27.6,26.1,00.0,36.3,29.4,27.2,-002.3,0014.96,0010.85,0010.42
2022-10-05 01:02:00,,0830.6,4.99,0.00,27.6,26.1,00.0,36.3,29.5,27.2,-002.3,0014.30,0010.80,0010.41
2022-10-05 01:03:00,,0830.6,5.01,0.00,27.6,26.1,00.0,36.3,29.5,27.2,-002.4,0014.20,0010.77,0010.42
2022-10-05 01:04:00,,0830.6,5.00,0.00,27.6,25.9,00.0,36.3,29.3,28.3,-002.5,0014.13,0010.71,0010.38
2022-10-05 01:05:00,,0830.6,5.01,0.00,27.4,24.8,00.0,36.3,29.0,29.5,-002.4,0014.16,0010.66,0010.32
2022-10-05 01:06:00,,0830.6,5.00,0.00,27.2,24.0,00.0,36.2,28.7,30.3,-002.2,0014.13,0010.60,0010.24
2022-10-05 01:07:00,,0830.6,4.99,0.00,27.0,23.5,00.0,36.1,28.5,30.3,-002.4,0014.20,0010.56,0010.17
2022-10-05 01:08:00,,0830.6,5.02,0.00,26.9,23.1,00.0,36.1,28.3,30.1,-002.5,0014.19,0010.54,0010.14
2022-10-05 01:09:00,,0830.6,4.99,0.00,26.7,22.9,00.0,36.0,28.1,30.0,-002.5,0013.67,0010.49,0010.11
2022-10-05 01:10:00,,0830.6,5.01,0.00,26.6,23.1,00.0,35.9,28.1,29.7,-002.2,0013.48,0010.47,0010.10
2022-10-05 01:11:00,,0830.7,5.01,0.00,26.6,23.6,00.0,35.8,28.2,29.8,-001.9,0013.26,0010.47,0010.09
2022-10-05 01:12:00,,0830.8,4.98,0.00,26.6,24.1,00.0,35.8,28.3,30.0,-001.7,0013.67,0010.48,0010.08
2022-10-05 01:13:00,,0830.8,5.01,0.00,26.6,24.5,00.0,35.7,28.4,30.2,-001.6,0014.06,0010.48,0010.06
2022-10-05 01:14:00,,0830.8,4.99,0.00,26.7,24.7,00.0,35.7,28.5,30.0,-001.5,0015.00,0010.47,0010.03
2022-10-05 01:15:00,,0830.8,5.00,0.00,26.7,25.0,00.0,35.7,28.5,30.0,-001.2,0015.72,0010.50,0010.05
2022-10-05 01:16:00,,0830.7,5.01,0.00,26.7,25.1,00.0,35.7,28.6,30.0,-001.2,0015.73,0010.54,0010.08
2022-10-05 01:17:00,,0830.7,5.00,0.00,26.8,25.3,00.0,35.7,28.6,29.9,-001.6,0015.75,0010.58,0010.13
2022-10-05 01:18:00,,0830.7,4.99,0.00,26.8,25.4,00.0,35.6,28.7,29.7,-002.0,0015.61,0010.58,0010.17
2022-10-05 01:19:00,,0830.7,5.01,0.00,26.8,25.5,00.0,35.6,28.7,29.6,-002.2,0015.61,0010.58,0010.19
2022-10-05 01:20:00,,0830.7,5.00,0.00,26.9,25.5,00.0,35.6,28.8,29.5,-002.1,0015.85,0010.59,0010.18
2022-10-05 01:21:00,,0830.7,4.99,0.00,26.9,25.6,00.0,35.6,28.8,29.3,-002.3,0016.40,0010.57,0010.16
2022-10-05 01:22:00,,0830.7,5.00,0.00,26.9,25.7,00.0,35.7,28.8,29.1,-002.3,0016.45,0010.56,0010.15
2022-10-05 01:23:00,,0830.8,5.00,0.00,27.0,25.7,00.0,35.7,28.9,28.9,-002.4,0016.14,0010.60,0010.17
2022-10-05 01:24:00,,0830.8,5.00,0.00,27.0,25.8,00.0,35.7,28.9,28.8,-002.4,0015.80,0010.63,0010.20
2022-10-05 01:25:00,,0830.8,5.00,0.00,27.0,25.8,00.0,35.7,29.0,28.8,-002.7,0015.45,0010.65,0010.23
2022-10-05 01:26:00,,0830.8,5.00,0.00,27.1,25.8,00.0,35.7,29.0,28.8,-003.1,0014.69,0010.67,0010.25
2022-10-05 01:27:00,,0830.8,5.00,0.00,27.1,25.9,00.0,35.7,29.0,28.7,-003.0,0014.67,0010.68,0010.29
2022-10-05 01:28:00,,0830.8,5.00,0.00,27.1,25.9,00.0,35.7,29.1,28.7,-003.0,0014.69,0010.70,0010.32
2022-10-05 01:29:00,,0830.8,5.00,0.00,27.1,26.0,00.0,35.7,29.1,28.6,-002.7,0014.96,0010.78,0010.37
2022-10-05 01:30:00,,0830.8,5.00,0.00,27.2,26.0,00.0,35.8,29.1,28.4,-002.5,0015.08,0010.83,0010.40
2022-10-05 01:31:00,,0830.8,5.00,0.00,27.2,26.0,00.0,35.8,29.1,28.2,-002.6,0015.01,0010.84,0010.45
2022-10-05 01:32:00,,0830.8,4.99,0.00,27.2,26.1,00.0,35.8,29.2,28.0,-002.4,0014.55,0010.87,0010.48
2022-10-05 01:33:00,,0830.8,5.00,0.00,27.3,26.1,00.0,35.8,29.2,27.8,-002.3,0014.55,0010.89,0010.49
2022-10-05 01:34:00,,0830.8,5.00,0.00,27.3,26.1,00.0,35.8,29.2,27.8,-002.1,0014.51,0010.88,0010.51
2022-10-05 01:35:00,,0830.8,5.00,0.00,27.3,26.1,00.0,35.9,29.2,27.6,-001.9,0014.52,0010.87,0010.51
2022-10-05 01:36:00,,0830.8,5.00,0.00,27.3,26.2,00.0,35.9,29.3,27.6,-001.9,0014.81,0010.89,0010.52
2022-10-05 01:37:00,,0830.8,5.00,0.00,27.3,26.2,00.0,35.9,29.3,27.6,-001.8,0014.89,0010.89,0010.51
2022-10-05 01:38:00,,0830.8,5.00,0.00,27.4,26.2,00.0,35.9,29.3,27.9,-001.8,0015.26,0010.92,0010.51
2022-10-05 01:39:00,,0830.9,5.02,0.00,27.4,26.3,00.0,35.9,29.3,28.0,-001.6,0015.53,0010.91,0010.48
2022-10-05 01:40:00,,0831.0,4.99,0.00,27.4,26.3,00.0,36.0,29.3,28.0,-001.6,0015.46,0010.85,0010.42
2022-10-05 01:41:00,,0831.0,5.00,0.00,27.4,26.3,00.0,36.0,29.4,27.7,-001.5,0015.35,0010.79,0010.37
2022-10-05 01:42:00,,0830.9,5.00,0.00,27.5,26.3,00.0,36.0,29.4,27.6,-001.7,0015.27,0010.78,0010.34
2022-10-05 01:43:00,,0830.9,4.99,0.00,27.5,26.4,00.0,36.0,29.4,27.6,-002.1,0015.13,0010.73,0010.31
2022-10-05 01:44:00,,0830.9,5.00,0.00,27.5,26.4,00.0,36.0,29.4,27.5,-002.3,0015.07,0010.71,0010.29
2022-10-05 01:45:00,,0830.9,5.00,0.00,27.5,26.4,00.0,36.1,29.5,27.4,-002.6,0015.06,0010.71,0010.28
2022-10-05 01:46:00,,0830.9,5.01,0.00,27.5,26.4,00.0,36.1,29.5,27.4,-002.9,0014.99,0010.71,0010.27
2022-10-05 01:47:00,,0831.0,4.99,0.00,27.6,26.4,00.0,36.1,29.5,27.4,-003.0,0014.30,0010.67,0010.26
2022-10-05 01:48:00,,0831.0,5.00,0.00,27.6,26.5,00.0,36.1,29.5,27.6,-003.0,0014.04,0010.61,0010.23
2022-10-05 01:49:00,,0831.1,5.00,0.00,27.6,26.5,00.0,36.1,29.5,28.4,-003.2,0013.59,0010.50,0010.13
2022-10-05 01:50:00,,0831.1,5.00,0.00,27.6,26.5,00.0,36.2,29.5,29.3,-003.1,0013.27,0010.32,0009.94
2022-10-05 01:51:00,,0831.0,5.01,0.00,27.6,26.5,00.0,36.2,29.5,30.1,-003.1,0012.97,0010.14,0009.76
2022-10-05 01:52:00,,0831.0,5.00,0.00,27.6,26.5,00.0,36.2,29.6,29.8,-003.0,0012.77,0009.95,0009.58
2022-10-05 01:53:00,,0831.0,5.00,0.00,27.7,26.5,00.0,36.2,29.6,29.6,-002.9,0012.63,0009.77,0009.39
2022-10-05 01:54:00,,0831.0,4.99,0.00,27.7,26.5,00.0,36.2,29.6,29.5,-002.6,0012.45,0009.55,0009.16
2022-10-05 01:55:00,,0831.0,5.01,0.00,27.7,26.6,00.0,36.3,29.6,28.4,-002.4,0012.64,0009.41,0008.98
2022-10-05 01:56:00,,0831.0,4.99,0.00,27.7,26.6,00.0,36.3,29.6,28.7,-002.0,0013.35,0009.19,0008.76
2022-10-05 01:57:00,,0831.0,4.99,0.00,27.7,26.6,00.0,36.3,29.6,29.0,-001.8,0013.35,0008.92,0008.51
2022-10-05 01:58:00,,0831.0,5.02,0.00,27.7,26.6,00.0,36.3,29.6,28.7,-001.5,0013.89,0008.71,0008.28
2022-10-05 01:59:00,,0831.0,4.99,0.00,27.7,26.6,00.0,36.3,29.7,29.3,-001.3,0013.69,0008.47,0008.05
